Location: Navajo
(48.7922°N, 105.0603°W)
Time: 00:49:10
(UTC+00:00)

CUBEBUG 2 - Visible Passes

Search period start: 30 June 2022 00:00
Search period end: 10 July 2022 00:00
Orbit: 582 x 695 km, 97.7° (Epoch: 29 June)

Date Brightness Start Highest point End Pass type
(mag) Time Alt. Az. Time Alt. Az. Time Alt. Az.
30 Jun ? 09:59:44 10° NNE 10:03:54 69° E 10:08:08 10° S visible
01 Jul ? 08:47:54 10° ENE 08:49:57 13° E 08:52:00 10° ESE visible
02 Jul ? 09:09:54 10° NE 09:13:12 22° E 09:16:32 10° SE visible
03 Jul ? 09:32:28 10° NNE 09:36:22 36° E 09:40:21 10° SSE visible
04 Jul ? 09:55:17 10° NNE 09:59:28 63° ESE 10:03:45 10° S visible
05 Jul ? 08:43:41 10° ENE 08:45:28 12° E 08:47:16 10° ESE visible
05 Jul ? 10:18:16 10° N 10:22:29 77° WNW 10:26:49 10° SSW visible
06 Jul ? 09:05:31 10° NE 09:08:43 21° E 09:11:59 10° SE visible
07 Jul ? 09:28:01 10° NNE 09:31:54 34° E 09:35:53 10° SSE visible
08 Jul ? 09:50:48 10° NNE 09:55:00 57° E 09:59:19 10° S visible
09 Jul ? 08:39:30 10° ENE 08:40:58 11° E 08:42:28 10° ESE visible
09 Jul ? 10:13:45 10° NNE 10:18:03 84° WNW 10:22:26 10° SSW visible
